[Date Prev][Date Next][Thread Prev][Thread Next] - [Date Index][Thread Index][Author Index]

2 Line ISS Keps 5-17



ISS
1 25544U 98067A   01137.10695602  .00037336  00000-0  45614-3 0  9761
2 25544  51.5687 245.4440 0017470  56.5004 312.6142 15.59876569142227

----
Via the sarex mailing list at AMSAT.ORG courtesy of AMSAT-NA.
To unsubscribe, send "unsubscribe sarex" to Majordomo@amsat.org



AMSAT Top AMSAT Home